Flag for U.S.A. Weather past 2 weeks in Tulsa, Oklahoma, U.S.A.

Now
84 °F

Partly sunny.


Feels Like: 90 °F
Forecast: 76 / 93 °F
Wind: 8 mph from Northwest

Location: Tulsa International Airport

Current Time: Jul 29, 2015 at 10:06:17 PM

Latest Report: Jul 29, 2015 at 8:53 PM


Visibility: 7 mi

Pressure: 30.00 "Hg

Humidity: 67%

Dew point: 72 °F

Location of TulsaLocation

Historic Weather in Tulsa — Graph

°F

Tulsa temperature yesterday

Maximum temperature yesterday: 97 °F (at 2:53 PM)
Minimum temperature yesterday: 81 °F (at 6:53 AM)
Average temperature yesterday: 90 °F

Past Weeks' High & Low Weather Summary

 TemperatureHumidityPressure
High98 °F (Jul 24, 2:53 PM)100% (Jul 23, 7:53 AM)30.04 "Hg (Jul 23, 7:53 AM)
Low74 °F (Jul 21, 1:53 AM)41% (Jul 26, 12:53 PM)29.74 "Hg (Jul 14, 8:53 PM)
Average87 °F65%29.87 "Hg
* Reported Jul 14 8:53 PM — Jul 29 8:53 PM, Tulsa, Weather by CustomWeather, © 2015

Note: Actual official high and low records may vary slightly from our data, if they occured in-between our weather recording intervals... More about our weather records

Advertising

Tulsa weather history for previous 24 hours

 ConditionsComfort  
Time TempWeatherWind HumidityBarometerVisibility
8:53 PM
Wed, Jul 29
84 °FPartly sunny.8 mph67%30.00 "Hg7 mi
7:59 PM88 °FThunderstorms. Partly sunny.16 mph65%30.03 "Hg5 mi
6:53 PM93 °FScattered clouds.3 mph56%29.97 "Hg10 mi
5:53 PM95 °FScattered clouds.5 mph47%29.96 "Hg10 mi
4:53 PM97 °FScattered clouds.10 mph45%29.98 "Hg10 mi
3:53 PM97 °FScattered clouds.8 mph43%29.98 "Hg10 mi
2:53 PM96 °FScattered clouds.6 mph47%29.99 "Hg10 mi
1:53 PM95 °FScattered clouds.6 mph51%30.01 "Hg10 mi
12:53 PM93 °FSunny.3 mph50%30.02 "Hg10 mi
11:53 AM91 °FPassing clouds.7 mph54%30.03 "Hg10 mi
10:53 AM89 °FScattered clouds.7 mph57%30.04 "Hg10 mi
9:53 AM87 °FPassing clouds.9 mph61%30.04 "Hg10 mi
8:53 AM85 °FPassing clouds.5 mph61%30.01 "Hg10 mi
7:53 AM80 °FScattered clouds.5 mph71%29.99 "Hg10 mi
6:53 AM76 °FPassing clouds.5 mph80%29.98 "Hg10 mi
5:53 AM80 °FClear.7 mph64%29.95 "Hg10 mi
4:53 AM80 °FClear.No wind64%29.95 "Hg10 mi
3:53 AM82 °FClear.8 mph58%29.93 "Hg10 mi
2:53 AM85 °FClear.5 mph53%29.93 "Hg10 mi
1:53 AM85 °FClear.9 mph55%29.93 "Hg10 mi
12:53 AM85 °FClear.8 mph61%29.93 "Hg10 mi
11:53 PM
Tue, Jul 28
85 °FClear.6 mph63%29.92 "Hg10 mi
10:53 PM89 °FClear.6 mph53%29.90 "Hg10 mi
Weather by CustomWeather, © 2015

See weather overviewHow to use our weather pages